TimeCST,TemperatureF,Dew PointF,Humidity,Sea Level PressureIn,VisibilityMPH,Wind Direction,Wind SpeedMPH,Gust SpeedMPH,PrecipitationIn,Events,Conditions,WindDirDegrees,DateUTC
12:58 AM,60.8,55.9,84,29.84,10.0,SE,11.5,-,N/A,,Overcast,130,2013-11-21 06:58:00
1:58 AM,61.5,56.7,84,29.84,10.0,SE,10.4,-,N/A,,Overcast,130,2013-11-21 07:58:00
2:58 AM,60.8,57.2,88,29.85,10.0,SE,9.2,-,N/A,,Overcast,140,2013-11-21 08:58:00
3:53 AM,60.8,59.0,94,29.87,10.0,SE,10.4,-,N/A,,Overcast,130,2013-11-21 09:53:00
3:58 AM,61.0,58.5,91,29.84,10.0,SE,10.4,-,N/A,,Overcast,130,2013-11-21 09:58:00
4:33 AM,60.8,59.0,94,29.87,10.0,SE,10.4,-,N/A,,Overcast,140,2013-11-21 10:33:00
4:58 AM,61.7,59.4,92,29.85,10.0,SE,6.9,-,N/A,,Overcast,140,2013-11-21 10:58:00
5:33 AM,60.8,59.0,94,29.88,10.0,SSE,8.1,-,N/A,,Overcast,150,2013-11-21 11:33:00
5:48 AM,60.8,59.0,94,29.89,10.0,SSE,6.9,-,N/A,,Overcast,150,2013-11-21 11:48:00
5:58 AM,61.7,59.9,94,29.88,10.0,SSE,8.1,-,N/A,,Overcast,150,2013-11-21 11:58:00
6:18 AM,60.8,59.0,94,29.90,10.0,SSE,8.1,-,N/A,,Overcast,150,2013-11-21 12:18:00
6:58 AM,61.2,60.3,97,29.90,10.0,SE,4.6,-,N/A,,Overcast,140,2013-11-21 12:58:00
7:13 AM,60.8,60.8,100,29.92,10.0,SSE,5.8,-,N/A,,Overcast,150,2013-11-21 13:13:00
7:18 AM,60.8,59.0,94,29.92,10.0,SSE,5.8,-,N/A,,Overcast,150,2013-11-21 13:18:00
7:28 AM,59.0,59.0,100,29.93,10.0,SSE,5.8,-,N/A,,Overcast,160,2013-11-21 13:28:00
7:33 AM,59.0,59.0,100,29.93,10.0,SSE,5.8,-,N/A,,Mostly Cloudy,150,2013-11-21 13:33:00
7:58 AM,59.0,59.0,100,29.92,10.0,SSE,5.8,-,N/A,,Scattered Clouds,150,2013-11-21 13:58:00
8:28 AM,62.6,62.6,100,29.95,10.0,South,4.6,-,N/A,,Mostly Cloudy,180,2013-11-21 14:28:00
8:58 AM,64.8,61.5,89,29.95,10.0,South,8.1,-,N/A,,Overcast,190,2013-11-21 14:58:00
9:08 AM,66.2,60.8,83,29.97,10.0,South,6.9,-,N/A,,Mostly Cloudy,190,2013-11-21 15:08:00
9:58 AM,66.9,61.5,83,29.97,10.0,South,8.1,-,N/A,,Mostly Cloudy,190,2013-11-21 15:58:00
10:58 AM,70.7,60.8,71,29.97,10.0,South,6.9,-,N/A,,Scattered Clouds,180,2013-11-21 16:58:00
11:58 AM,73.4,57.9,58,29.95,10.0,West,9.2,-,N/A,,Partly Cloudy,280,2013-11-21 17:58:00
12:58 PM,75.2,54.5,48,29.93,10.0,Variable,5.8,-,N/A,,Scattered Clouds,0,2013-11-21 18:58:00
1:01 PM,77.0,55.4,47,29.96,10.0,North,25.3,40.3,N/A,,Squalls,350,2013-11-21 19:01:00
1:06 PM,75.2,53.6,47,29.97,10.0,NNW,20.7,29.9,N/A,,Scattered Clouds,340,2013-11-21 19:06:00
1:07 PM,75.2,51.8,44,29.97,10.0,North,26.5,29.9,N/A,,Scattered Clouds,10,2013-11-21 19:07:00
1:12 PM,68.0,50.0,52,29.99,10.0,North,24.2,29.9,N/A,,Mostly Cloudy,360,2013-11-21 19:12:00
1:37 PM,57.2,46.4,67,30.02,10.0,North,23.0,28.8,N/A,,Scattered Clouds,360,2013-11-21 19:37:00
1:58 PM,56.1,43.5,63,30.03,10.0,North,26.5,36.8,N/A,,Scattered Clouds,350,2013-11-21 19:58:00
2:28 PM,50.0,39.2,66,30.06,10.0,North,29.9,40.3,N/A,,Mostly Cloudy,350,2013-11-21 20:28:00
2:58 PM,46.4,37.4,71,30.09,10.0,North,27.6,35.7,N/A,,Mostly Cloudy,350,2013-11-21 20:58:00
3:08 PM,46.4,35.6,66,30.10,10.0,North,29.9,35.7,N/A,,Mostly Cloudy,350,2013-11-21 21:08:00
3:13 PM,46.4,35.6,66,30.10,10.0,North,28.8,36.8,N/A,,Mostly Cloudy,350,2013-11-21 21:13:00
3:18 PM,44.6,35.6,71,30.11,10.0,North,28.8,36.8,N/A,,Mostly Cloudy,350,2013-11-21 21:18:00
3:58 PM,43.5,33.6,68,30.13,10.0,North,28.8,33.4,N/A,,Mostly Cloudy,360,2013-11-21 21:58:00
4:58 PM,39.9,31.3,71,30.16,10.0,North,28.8,35.7,N/A,,Overcast,360,2013-11-21 22:58:00
5:58 PM,36.9,29.5,75,30.21,10.0,North,24.2,33.4,N/A,,Overcast,10,2013-11-21 23:58:00
6:58 PM,35.2,27.9,74,30.28,10.0,North,20.7,35.7,N/A,,Overcast,360,2013-11-22 00:58:00
7:58 PM,34.0,26.2,73,30.31,10.0,North,25.3,32.2,N/A,,Overcast,10,2013-11-22 01:58:00
8:58 PM,33.3,24.3,70,30.36,10.0,North,25.3,31.1,N/A,,Overcast,360,2013-11-22 02:58:00
9:28 PM,32.0,23.0,69,30.36,10.0,North,28.8,35.7,N/A,,Overcast,10,2013-11-22 03:28:00
9:33 PM,32.0,23.0,69,30.36,10.0,North,23.0,34.5,N/A,,Overcast,10,2013-11-22 03:33:00
9:58 PM,32.7,23.4,68,30.38,10.0,North,27.6,35.7,N/A,,Overcast,10,2013-11-22 03:58:00
10:33 PM,32.0,23.0,69,30.39,10.0,North,21.9,33.4,N/A,,Overcast,360,2013-11-22 04:33:00
10:58 PM,32.0,23.0,69,30.40,10.0,North,23.0,34.5,N/A,,Overcast,360,2013-11-22 04:58:00
11:53 PM,32.0,21.2,64,30.43,10.0,North,24.2,29.9,N/A,,Overcast,360,2013-11-22 05:53:00
11:58 PM,31.8,21.7,66,30.43,10.0,North,31.1,33.4,N/A,,Overcast,360,2013-11-22 05:58:00